Location: Unspecified
(0.0000°N, 0.0000°E)
Time: 18:00:55
(UTC+00:00)

STARLINK 1061 - Pass Details

Date: 23 January 2020
Orbit: 548 x 551 km, 53.0° (Epoch: 17 January)

Event Time Altitude Azimuth Distance (km) Brightness Sun altitude
Exits shadow 05:08:58 22° 264° (W) 1,206 4.8 -14.7°
Maximum altitude 05:10:37 30° 304° (NW) 990 4.4 -14.4°
Drops below altitude 10° 05:14:15 10° 6° (N) 1,807 6.1 -13.5°
Sets 05:16:40 0° 17° (NNE) 2,697 7.1 -12.9°
